Year,Month,Day,Hour,Minute,Value (Times are PST for temperature in C)
2017,09,26,09,06,14.90
2017,09,26,09,07,14.90
2017,09,26,09,08,14.90
2017,09,26,09,09,15.00
2017,09,26,09,10,15.00
2017,09,26,09,11,15.00
2017,09,26,09,12,15.00
2017,09,26,09,13,15.00
2017,09,26,09,14,15.10
2017,09,26,09,15,15.10
2017,09,26,09,16,15.10
2017,09,26,09,17,15.10
2017,09,26,09,18,15.10
2017,09,26,09,19,15.10
2017,09,26,09,20,15.10
2017,09,26,09,21,15.10
2017,09,26,09,22,15.10
2017,09,26,09,23,15.10
2017,09,26,09,24,15.20
2017,09,26,09,25,15.20
2017,09,26,09,26,15.20
2017,09,26,09,27,15.30
2017,09,26,09,28,15.40
2017,09,26,09,29,15.50
2017,09,26,09,30,15.50
2017,09,26,09,31,15.50
2017,09,26,09,32,15.50
2017,09,26,09,33,15.40
2017,09,26,09,34,15.30
2017,09,26,09,35,15.30
2017,09,26,09,36,15.30
2017,09,26,09,37,15.30
2017,09,26,09,38,15.20
2017,09,26,09,39,15.30
2017,09,26,09,40,15.30
2017,09,26,09,41,15.30
2017,09,26,09,42,15.40
2017,09,26,09,43,15.40
2017,09,26,09,44,15.50
2017,09,26,09,45,15.60
2017,09,26,09,46,15.60
2017,09,26,09,47,15.70
2017,09,26,09,48,15.70
2017,09,26,09,49,15.70
2017,09,26,09,50,15.60
2017,09,26,09,51,15.60
2017,09,26,09,52,15.60
2017,09,26,09,53,15.60
2017,09,26,09,54,15.60
2017,09,26,09,55,15.60
2017,09,26,09,56,15.60
2017,09,26,09,57,15.60
2017,09,26,09,58,15.60
2017,09,26,09,59,15.50
2017,09,26,10,00,15.50
2017,09,26,10,01,15.50
2017,09,26,10,02,15.40
2017,09,26,10,03,15.40
2017,09,26,10,04,15.30
2017,09,26,10,05,15.30
2017,09,26,10,06,15.40
2017,09,26,10,07,15.40
2017,09,26,10,08,15.50
2017,09,26,10,09,15.60
2017,09,26,10,10,15.60
2017,09,26,10,11,15.60
2017,09,26,10,12,15.60
2017,09,26,10,13,15.60
2017,09,26,10,14,15.60
2017,09,26,10,15,15.60
2017,09,26,10,16,15.60
2017,09,26,10,17,15.60
2017,09,26,10,18,15.60
2017,09,26,10,19,15.60
2017,09,26,10,20,15.60
2017,09,26,10,21,15.60
2017,09,26,10,22,15.60
2017,09,26,10,23,15.70
2017,09,26,10,24,15.70
2017,09,26,10,25,15.80
2017,09,26,10,26,15.80
2017,09,26,10,27,15.80
2017,09,26,10,28,15.90
2017,09,26,10,29,15.90
2017,09,26,10,30,15.90
2017,09,26,10,31,15.90
2017,09,26,10,32,15.80
2017,09,26,10,33,15.80
2017,09,26,10,34,15.90
2017,09,26,10,35,15.90
2017,09,26,10,36,15.90
2017,09,26,10,37,16.00
2017,09,26,10,38,16.10
2017,09,26,10,39,16.10
2017,09,26,10,40,16.20
2017,09,26,10,41,16.20
2017,09,26,10,42,16.20
2017,09,26,10,43,16.30
2017,09,26,10,44,16.30
2017,09,26,10,45,16.40
2017,09,26,10,46,16.40
2017,09,26,10,47,16.40
2017,09,26,10,48,16.50
2017,09,26,10,49,16.50
2017,09,26,10,50,16.60
2017,09,26,10,51,16.70
2017,09,26,10,52,16.80
2017,09,26,10,53,16.90
2017,09,26,10,54,16.90
2017,09,26,10,55,16.90
2017,09,26,10,56,17.00
2017,09,26,10,57,17.00
2017,09,26,10,58,17.10
2017,09,26,10,59,17.10
2017,09,26,11,00,17.10
2017,09,26,11,01,17.10
2017,09,26,11,02,17.10
2017,09,26,11,03,17.10
2017,09,26,11,04,17.10
2017,09,26,11,05,17.20
2017,09,26,11,06,17.30
2017,09,26,11,07,17.30
2017,09,26,11,08,17.40
2017,09,26,11,09,17.40
2017,09,26,11,10,17.50
2017,09,26,11,11,17.50
2017,09,26,11,12,17.50
2017,09,26,11,13,17.50
2017,09,26,11,14,17.40
2017,09,26,11,15,17.40
2017,09,26,11,16,17.30
2017,09,26,11,17,17.20
2017,09,26,11,18,17.20
2017,09,26,11,19,17.10
2017,09,26,11,20,17.10
2017,09,26,11,21,17.10
2017,09,26,11,22,17.10
2017,09,26,11,23,17.00
2017,09,26,11,24,17.00
2017,09,26,11,25,17.10
2017,09,26,11,26,17.20
2017,09,26,11,27,17.40
2017,09,26,11,28,17.50
2017,09,26,11,29,17.60
2017,09,26,11,30,17.70
2017,09,26,11,31,17.70
2017,09,26,11,32,17.60
2017,09,26,11,33,17.60
2017,09,26,11,34,17.50
2017,09,26,11,35,17.40
2017,09,26,11,36,17.40
2017,09,26,11,37,17.30
2017,09,26,11,38,17.30
2017,09,26,11,39,17.30
2017,09,26,11,40,17.30
2017,09,26,11,41,17.20
2017,09,26,11,42,17.30
2017,09,26,11,43,17.30
2017,09,26,11,44,17.40
2017,09,26,11,45,17.40
2017,09,26,11,46,17.40
2017,09,26,11,47,17.50
2017,09,26,11,48,17.50
2017,09,26,11,49,17.60
2017,09,26,11,50,17.70
2017,09,26,11,51,17.80
2017,09,26,11,52,17.90
2017,09,26,11,53,17.90
2017,09,26,11,54,17.80
2017,09,26,11,55,17.70
2017,09,26,11,56,17.60
2017,09,26,11,57,17.60
2017,09,26,11,58,17.60
2017,09,26,11,59,17.60
2017,09,26,12,00,17.60
2017,09,26,12,01,17.70
2017,09,26,12,02,17.70
2017,09,26,12,03,17.70
2017,09,26,12,04,17.70
2017,09,26,12,05,17.60
2017,09,26,12,06,17.60
2017,09,26,12,07,17.70
2017,09,26,12,08,17.70
2017,09,26,12,09,17.80
2017,09,26,12,10,17.80
2017,09,26,12,11,17.90
2017,09,26,12,12,17.90
2017,09,26,12,13,18.00
2017,09,26,12,14,18.00
2017,09,26,12,15,18.10
2017,09,26,12,16,18.10
2017,09,26,12,17,18.10
2017,09,26,12,18,18.10
2017,09,26,12,19,18.10
2017,09,26,12,20,18.20
2017,09,26,12,21,18.20
2017,09,26,12,22,18.30
2017,09,26,12,23,18.40
2017,09,26,12,24,18.40
2017,09,26,12,25,18.50
2017,09,26,12,26,18.60
2017,09,26,12,27,18.70
2017,09,26,12,28,18.70
2017,09,26,12,29,18.70
2017,09,26,12,30,18.60
2017,09,26,12,31,18.60
2017,09,26,12,32,18.60
2017,09,26,12,33,18.60
2017,09,26,12,34,18.60
2017,09,26,12,35,18.60
2017,09,26,12,36,18.70
2017,09,26,12,37,18.70
2017,09,26,12,38,18.70
2017,09,26,12,39,18.70
2017,09,26,12,40,18.80
2017,09,26,12,41,18.80
2017,09,26,12,42,18.80
2017,09,26,12,43,18.80
2017,09,26,12,44,18.80
2017,09,26,12,45,18.80
2017,09,26,12,46,18.80
2017,09,26,12,47,18.80
2017,09,26,12,48,18.80
2017,09,26,12,49,18.80
2017,09,26,12,50,18.70
2017,09,26,12,51,18.70
2017,09,26,12,52,18.70
2017,09,26,12,53,18.70
2017,09,26,12,54,18.70
2017,09,26,12,55,18.70
2017,09,26,12,56,18.70
2017,09,26,12,57,18.70
2017,09,26,12,58,18.70
2017,09,26,12,59,18.70
2017,09,26,13,00,18.70
2017,09,26,13,01,18.70
2017,09,26,13,02,18.80
2017,09,26,13,03,18.80
2017,09,26,13,04,18.80
2017,09,26,13,05,18.80
2017,09,26,13,06,18.80
2017,09,26,13,07,18.80
2017,09,26,13,08,18.90
2017,09,26,13,09,18.90
2017,09,26,13,10,18.90
2017,09,26,13,11,18.80
2017,09,26,13,12,18.80
2017,09,26,13,13,18.80
2017,09,26,13,14,18.80
2017,09,26,13,15,18.80
2017,09,26,13,16,18.80
2017,09,26,13,17,18.80
2017,09,26,13,18,18.80
2017,09,26,13,19,18.80
2017,09,26,13,20,18.80
2017,09,26,13,21,18.80
2017,09,26,13,22,18.90
2017,09,26,13,23,18.90
2017,09,26,13,24,18.80
2017,09,26,13,25,18.80
2017,09,26,13,26,18.80
2017,09,26,13,27,18.80
2017,09,26,13,28,18.90
2017,09,26,13,29,18.90
2017,09,26,13,30,18.90
2017,09,26,13,31,18.90
2017,09,26,13,32,18.90
2017,09,26,13,33,18.90
2017,09,26,13,34,18.90
2017,09,26,13,35,18.90
2017,09,26,13,36,18.90
2017,09,26,13,37,18.90
2017,09,26,13,38,18.90
2017,09,26,13,39,18.90
2017,09,26,13,40,19.00
2017,09,26,13,41,19.00
2017,09,26,13,42,19.00
2017,09,26,13,43,19.10
2017,09,26,13,44,19.10
2017,09,26,13,45,19.10
2017,09,26,13,46,19.00
2017,09,26,13,47,19.00
2017,09,26,13,48,19.00
2017,09,26,13,49,19.00
2017,09,26,13,50,19.00
2017,09,26,13,51,19.00
2017,09,26,13,52,19.00
2017,09,26,13,53,19.10
2017,09,26,13,54,19.10
2017,09,26,13,55,19.10
2017,09,26,13,56,19.10
2017,09,26,13,57,19.10
2017,09,26,13,58,19.10
2017,09,26,13,59,19.10
2017,09,26,14,00,19.10
2017,09,26,14,01,19.10
2017,09,26,14,02,19.10
2017,09,26,14,03,19.10
2017,09,26,14,04,19.20
2017,09,26,14,05,19.20
2017,09,26,14,06,19.30
2017,09,26,14,07,19.30
2017,09,26,14,08,19.40
2017,09,26,14,09,19.50
2017,09,26,14,10,19.50
2017,09,26,14,11,19.50
2017,09,26,14,12,19.50
2017,09,26,14,13,19.40
2017,09,26,14,14,19.40
2017,09,26,14,15,19.40
2017,09,26,14,16,19.40
2017,09,26,14,17,19.40
2017,09,26,14,18,19.40
2017,09,26,14,19,19.50
2017,09,26,14,20,19.50
2017,09,26,14,21,19.60
2017,09,26,14,22,19.60
2017,09,26,14,23,19.60
2017,09,26,14,24,19.50
2017,09,26,14,25,19.50
2017,09,26,14,26,19.60
2017,09,26,14,27,19.60
2017,09,26,14,28,19.70
2017,09,26,14,29,19.70
2017,09,26,14,30,19.70
2017,09,26,14,31,19.60
2017,09,26,14,32,19.50
2017,09,26,14,33,19.40
2017,09,26,14,34,19.40
2017,09,26,14,35,19.30
2017,09,26,14,36,19.30
2017,09,26,14,37,19.20
2017,09,26,14,38,19.20
2017,09,26,14,39,19.20
2017,09,26,14,40,19.20
2017,09,26,14,41,19.10
2017,09,26,14,42,19.10
2017,09,26,14,43,19.00
2017,09,26,14,44,19.00
2017,09,26,14,45,18.90
2017,09,26,14,46,18.90
2017,09,26,14,47,18.80
2017,09,26,14,48,18.80
2017,09,26,14,49,18.80
2017,09,26,14,50,18.70
2017,09,26,14,51,18.70
2017,09,26,14,52,18.70
2017,09,26,14,53,18.80
2017,09,26,14,54,18.80
2017,09,26,14,55,18.90
2017,09,26,14,56,18.90
2017,09,26,14,57,18.90
2017,09,26,14,58,19.00
2017,09,26,14,59,19.00
2017,09,26,15,00,19.10
2017,09,26,15,01,19.10
2017,09,26,15,02,19.10
2017,09,26,15,03,19.10
2017,09,26,15,04,19.10
2017,09,26,15,05,19.10
2017,09,26,15,06,19.20
2017,09,26,15,07,19.20
2017,09,26,15,08,19.20
2017,09,26,15,09,19.20
2017,09,26,15,10,19.30
2017,09,26,15,11,19.30
2017,09,26,15,12,19.20
2017,09,26,15,13,19.20
2017,09,26,15,14,19.20
2017,09,26,15,15,19.10
2017,09,26,15,16,19.10
2017,09,26,15,17,19.10
2017,09,26,15,18,19.10
2017,09,26,15,19,19.10
2017,09,26,15,20,19.00
2017,09,26,15,21,19.00
2017,09,26,15,22,19.00
2017,09,26,15,23,18.90
2017,09,26,15,24,18.90
2017,09,26,15,25,18.90
2017,09,26,15,26,19.00
2017,09,26,15,27,19.00
2017,09,26,15,28,19.10
2017,09,26,15,29,19.10
2017,09,26,15,30,19.20
2017,09,26,15,31,19.20
2017,09,26,15,32,19.20
2017,09,26,15,33,19.20
2017,09,26,15,34,19.20
2017,09,26,15,35,19.20
2017,09,26,15,36,19.10
2017,09,26,15,37,19.10
2017,09,26,15,38,19.10
2017,09,26,15,39,19.10
2017,09,26,15,40,19.20
2017,09,26,15,41,19.20
2017,09,26,15,42,19.20
2017,09,26,15,43,19.20
2017,09,26,15,44,19.20
2017,09,26,15,45,19.20
2017,09,26,15,46,19.20
2017,09,26,15,47,19.20
2017,09,26,15,48,19.30
2017,09,26,15,49,19.30
2017,09,26,15,50,19.30
2017,09,26,15,51,19.30
2017,09,26,15,52,19.30
2017,09,26,15,53,19.30
2017,09,26,15,54,19.40
2017,09,26,15,55,19.30
2017,09,26,15,56,19.30
2017,09,26,15,57,19.20
2017,09,26,15,58,19.20
2017,09,26,15,59,19.20
2017,09,26,16,00,19.20
2017,09,26,16,01,19.20
2017,09,26,16,02,19.20
2017,09,26,16,03,19.20
2017,09,26,16,04,19.20
2017,09,26,16,05,19.20
2017,09,26,16,06,19.30
2017,09,26,16,07,19.40
2017,09,26,16,08,19.40
2017,09,26,16,09,19.50
2017,09,26,16,10,19.60
2017,09,26,16,11,19.70
2017,09,26,16,12,19.80
2017,09,26,16,13,19.80
2017,09,26,16,14,19.80
2017,09,26,16,15,19.90
2017,09,26,16,16,19.90
2017,09,26,16,17,19.90
2017,09,26,16,18,19.90
2017,09,26,16,19,19.90
2017,09,26,16,20,19.90
2017,09,26,16,21,19.90
2017,09,26,16,22,20.00
2017,09,26,16,23,20.00
2017,09,26,16,24,20.10
2017,09,26,16,25,20.20
2017,09,26,16,26,20.20
2017,09,26,16,27,20.20
2017,09,26,16,28,20.20
2017,09,26,16,29,20.20
2017,09,26,16,30,20.10
2017,09,26,16,31,20.10
2017,09,26,16,32,20.00
2017,09,26,16,33,19.90
2017,09,26,16,34,19.90
2017,09,26,16,35,19.80
2017,09,26,16,36,19.80
2017,09,26,16,37,19.80
2017,09,26,16,38,19.80
2017,09,26,16,39,19.80
2017,09,26,16,40,19.70
2017,09,26,16,41,19.70
2017,09,26,16,42,19.70
2017,09,26,16,43,19.70
2017,09,26,16,44,19.70
2017,09,26,16,45,19.80
2017,09,26,16,46,19.90
2017,09,26,16,47,20.00
2017,09,26,16,48,20.10
2017,09,26,16,49,20.20
2017,09,26,16,50,20.30
2017,09,26,16,51,20.30
2017,09,26,16,52,20.40
2017,09,26,16,53,20.40
2017,09,26,16,54,20.50
2017,09,26,16,55,20.50
2017,09,26,16,56,20.50
2017,09,26,16,57,20.50
2017,09,26,16,58,20.50
2017,09,26,16,59,20.50
2017,09,26,17,00,20.60
2017,09,26,17,01,20.60
2017,09,26,17,02,20.60
2017,09,26,17,03,20.70
2017,09,26,17,04,20.60
2017,09,26,17,05,20.70
2017,09,26,17,06,20.60
2017,09,26,17,07,20.60
2017,09,26,17,08,20.60
2017,09,26,17,09,20.50
2017,09,26,17,10,20.50
2017,09,26,17,11,20.40
2017,09,26,17,12,20.40
2017,09,26,17,13,20.40
2017,09,26,17,14,20.40
2017,09,26,17,15,20.40
2017,09,26,17,16,20.40
2017,09,26,17,17,20.40
2017,09,26,17,18,20.40
2017,09,26,17,19,20.40
2017,09,26,17,20,20.40
2017,09,26,17,21,20.50
2017,09,26,17,22,20.40
2017,09,26,17,23,20.40
2017,09,26,17,24,20.40
2017,09,26,17,25,20.40
2017,09,26,17,26,20.40
2017,09,26,17,27,20.40
2017,09,26,17,28,20.40
2017,09,26,17,29,20.30
2017,09,26,17,30,20.30
2017,09,26,17,31,20.30
2017,09,26,17,32,20.20
2017,09,26,17,33,20.20
2017,09,26,17,34,20.20
2017,09,26,17,35,20.20
2017,09,26,17,36,20.10
2017,09,26,17,37,20.10
2017,09,26,17,38,20.10
2017,09,26,17,39,20.00
2017,09,26,17,40,20.00
2017,09,26,17,41,20.00
2017,09,26,17,42,20.00
2017,09,26,17,43,20.00
2017,09,26,17,44,20.00
2017,09,26,17,45,20.10
2017,09,26,17,46,20.10
2017,09,26,17,47,20.00
2017,09,26,17,48,20.00
2017,09,26,17,49,20.00
2017,09,26,17,50,19.90
2017,09,26,17,51,19.90
2017,09,26,17,52,19.90
2017,09,26,17,53,19.90
2017,09,26,17,54,19.90
2017,09,26,17,55,19.90
2017,09,26,17,56,19.90
2017,09,26,17,57,19.90
2017,09,26,17,58,19.80
2017,09,26,17,59,19.80
2017,09,26,18,00,19.80
2017,09,26,18,01,19.70
2017,09,26,18,02,19.70
2017,09,26,18,03,19.70
2017,09,26,18,04,19.70
2017,09,26,18,05,19.70
2017,09,26,18,06,19.70
2017,09,26,18,07,19.70
2017,09,26,18,08,19.60
2017,09,26,18,09,19.60
2017,09,26,18,10,19.60
2017,09,26,18,11,19.60
2017,09,26,18,12,19.60
2017,09,26,18,13,19.60
2017,09,26,18,14,19.60
2017,09,26,18,15,19.50
2017,09,26,18,16,19.50
2017,09,26,18,17,19.50
2017,09,26,18,18,19.40
2017,09,26,18,19,19.40
2017,09,26,18,20,19.40
2017,09,26,18,21,19.40
2017,09,26,18,22,19.40
2017,09,26,18,23,19.30
2017,09,26,18,24,19.30
2017,09,26,18,25,19.30
2017,09,26,18,26,19.30
2017,09,26,18,27,19.30
2017,09,26,18,28,19.30
2017,09,26,18,29,19.30
2017,09,26,18,30,19.30
2017,09,26,18,31,19.20
2017,09,26,18,32,19.20
2017,09,26,18,33,19.20
2017,09,26,18,34,19.10
2017,09,26,18,35,19.10
2017,09,26,18,36,19.00
2017,09,26,18,37,19.00
2017,09,26,18,38,18.90
2017,09,26,18,39,18.90
2017,09,26,18,40,18.90
2017,09,26,18,41,18.80
2017,09,26,18,42,18.80
2017,09,26,18,43,18.80
2017,09,26,18,44,18.80
2017,09,26,18,45,18.70
2017,09,26,18,46,18.70
2017,09,26,18,47,18.70
2017,09,26,18,48,18.60
2017,09,26,18,49,18.60
2017,09,26,18,50,18.60
2017,09,26,18,51,18.60
2017,09,26,18,52,18.50
2017,09,26,18,53,18.50
2017,09,26,18,54,18.40
2017,09,26,18,55,18.40
2017,09,26,18,56,18.30
2017,09,26,18,57,18.30
2017,09,26,18,58,18.30
2017,09,26,18,59,18.20
2017,09,26,19,00,18.20
2017,09,26,19,01,18.10
2017,09,26,19,02,18.10
2017,09,26,19,03,18.10
2017,09,26,19,04,18.00
2017,09,26,19,05,18.00
2017,09,26,19,06,17.90
2017,09,26,19,07,17.90
2017,09,26,19,08,17.80
2017,09,26,19,09,17.80
2017,09,26,19,10,17.80
2017,09,26,19,11,17.70
2017,09,26,19,12,17.70
2017,09,26,19,13,17.60
2017,09,26,19,14,17.60
2017,09,26,19,15,17.50
2017,09,26,19,16,17.50
2017,09,26,19,17,17.40
2017,09,26,19,18,17.40
2017,09,26,19,19,17.40
2017,09,26,19,20,17.30
2017,09,26,19,21,17.30
2017,09,26,19,22,17.30
2017,09,26,19,23,17.30
2017,09,26,19,24,17.20
2017,09,26,19,25,17.20
2017,09,26,19,26,17.20
2017,09,26,19,27,17.10
2017,09,26,19,28,17.10
2017,09,26,19,29,17.10
2017,09,26,19,30,17.00
2017,09,26,19,31,17.00
2017,09,26,19,32,16.90
2017,09,26,19,33,16.90
2017,09,26,19,34,16.90
2017,09,26,19,35,16.90
2017,09,26,19,36,16.80
2017,09,26,19,37,16.80
2017,09,26,19,38,16.80
2017,09,26,19,39,16.80
2017,09,26,19,40,16.70
2017,09,26,19,41,16.70
2017,09,26,19,42,16.70
2017,09,26,19,43,16.70
2017,09,26,19,44,16.60
2017,09,26,19,45,16.60
2017,09,26,19,46,16.60
2017,09,26,19,47,16.60
2017,09,26,19,48,16.50
2017,09,26,19,49,16.50
2017,09,26,19,50,16.50
2017,09,26,19,51,16.40
2017,09,26,19,52,16.40
2017,09,26,19,53,16.40
2017,09,26,19,54,16.40
2017,09,26,19,55,16.30
2017,09,26,19,56,16.30
2017,09,26,19,57,16.30
2017,09,26,19,58,16.30
2017,09,26,19,59,16.30
2017,09,26,20,00,16.20
2017,09,26,20,01,16.20
2017,09,26,20,02,16.20
2017,09,26,20,03,16.20
2017,09,26,20,04,16.20
2017,09,26,20,05,16.10
2017,09,26,20,06,16.10
2017,09,26,20,07,16.10
2017,09,26,20,08,16.10
2017,09,26,20,09,16.10
2017,09,26,20,10,16.00
2017,09,26,20,11,16.00
2017,09,26,20,12,16.00
2017,09,26,20,13,15.90
2017,09,26,20,14,15.90
2017,09,26,20,15,15.90
2017,09,26,20,16,15.90
2017,09,26,20,17,15.90
2017,09,26,20,18,15.90
2017,09,26,20,19,15.80
2017,09,26,20,20,15.80
2017,09,26,20,21,15.80
2017,09,26,20,22,15.80
2017,09,26,20,23,15.80
2017,09,26,20,24,15.80
2017,09,26,20,25,15.70
2017,09,26,20,26,15.70
2017,09,26,20,27,15.70
2017,09,26,20,28,15.70
2017,09,26,20,29,15.70
2017,09,26,20,30,15.70
2017,09,26,20,31,15.70
2017,09,26,20,32,15.60
2017,09,26,20,33,15.60
2017,09,26,20,34,15.60
2017,09,26,20,35,15.60
2017,09,26,20,36,15.60
2017,09,26,20,37,15.60
2017,09,26,20,38,15.60
2017,09,26,20,39,15.50
2017,09,26,20,40,15.50
2017,09,26,20,41,15.50
2017,09,26,20,42,15.50
2017,09,26,20,43,15.50
2017,09,26,20,44,15.40
2017,09,26,20,45,15.40
2017,09,26,20,46,15.40
2017,09,26,20,47,15.40
2017,09,26,20,48,15.40
2017,09,26,20,49,15.30
2017,09,26,20,50,15.30
2017,09,26,20,51,15.30
2017,09,26,20,52,15.30
2017,09,26,20,53,15.30
2017,09,26,20,54,15.30
2017,09,26,20,55,15.20
2017,09,26,20,56,15.20
2017,09,26,20,57,15.20
2017,09,26,20,58,15.20
2017,09,26,20,59,15.20
2017,09,26,21,00,15.20
2017,09,26,21,01,15.20
2017,09,26,21,02,15.10
2017,09,26,21,03,15.10
2017,09,26,21,04,15.10
2017,09,26,21,05,15.10
2017,09,26,21,06,15.10
2017,09,26,21,07,15.10
2017,09,26,21,08,15.00
2017,09,26,21,09,15.00
2017,09,26,21,10,15.00
2017,09,26,21,11,15.00
2017,09,26,21,12,14.90
2017,09,26,21,13,14.90
2017,09,26,21,14,14.90
2017,09,26,21,15,14.90
2017,09,26,21,16,14.90
2017,09,26,21,17,14.80
2017,09,26,21,18,14.80
2017,09,26,21,19,14.80
2017,09,26,21,20,14.80
2017,09,26,21,21,14.80
2017,09,26,21,22,14.80
2017,09,26,21,23,14.70
2017,09,26,21,24,14.70
2017,09,26,21,25,14.70
2017,09,26,21,26,14.70
2017,09,26,21,27,14.70
2017,09,26,21,28,14.60
2017,09,26,21,29,14.60
2017,09,26,21,30,14.60
2017,09,26,21,31,14.60
2017,09,26,21,32,14.60
2017,09,26,21,33,14.50
2017,09,26,21,34,14.50
2017,09,26,21,35,14.40
2017,09,26,21,36,14.40
2017,09,26,21,37,14.40
2017,09,26,21,38,14.40
2017,09,26,21,39,14.40
2017,09,26,21,40,14.30
2017,09,26,21,41,14.30
2017,09,26,21,42,14.30
2017,09,26,21,43,14.30
2017,09,26,21,44,14.30
2017,09,26,21,45,14.20
2017,09,26,21,46,14.20
2017,09,26,21,47,14.20
2017,09,26,21,48,14.20
2017,09,26,21,49,14.10
2017,09,26,21,50,14.10
2017,09,26,21,51,14.10
2017,09,26,21,52,14.10
2017,09,26,21,53,14.00
2017,09,26,21,54,14.00
2017,09,26,21,55,13.90
2017,09,26,21,56,13.90
2017,09,26,21,57,13.90
2017,09,26,21,58,13.80
2017,09,26,21,59,13.80
2017,09,26,22,00,13.80
2017,09,26,22,01,13.80
2017,09,26,22,02,13.80
2017,09,26,22,03,13.80
2017,09,26,22,04,13.70
2017,09,26,22,05,13.70
2017,09,26,22,06,13.70
2017,09,26,22,07,13.70
2017,09,26,22,08,13.70
2017,09,26,22,09,13.70
2017,09,26,22,10,13.60
2017,09,26,22,11,13.60
2017,09,26,22,12,13.60
2017,09,26,22,13,13.60
2017,09,26,22,14,13.60
2017,09,26,22,15,13.60
2017,09,26,22,16,13.60
2017,09,26,22,17,13.60
2017,09,26,22,18,13.50
2017,09,26,22,19,13.50
2017,09,26,22,20,13.50
2017,09,26,22,21,13.50
2017,09,26,22,22,13.40
2017,09,26,22,23,13.40
2017,09,26,22,24,13.40
2017,09,26,22,25,13.40
2017,09,26,22,26,13.40
2017,09,26,22,27,13.40
2017,09,26,22,28,13.30
2017,09,26,22,29,13.30
2017,09,26,22,30,13.30
2017,09,26,22,31,13.30
2017,09,26,22,32,13.30
2017,09,26,22,33,13.30
2017,09,26,22,34,13.30
2017,09,26,22,35,13.30
2017,09,26,22,36,13.20
2017,09,26,22,37,13.20
2017,09,26,22,38,13.20
2017,09,26,22,39,13.20
2017,09,26,22,40,13.20
2017,09,26,22,41,13.20
2017,09,26,22,42,13.20
2017,09,26,22,43,13.20
2017,09,26,22,44,13.10
2017,09,26,22,45,13.10
2017,09,26,22,46,13.10
2017,09,26,22,47,13.10
2017,09,26,22,48,13.10
2017,09,26,22,49,13.10
2017,09,26,22,50,13.10
2017,09,26,22,51,13.00
2017,09,26,22,52,13.00
2017,09,26,22,53,13.00
2017,09,26,22,54,12.90
2017,09,26,22,55,12.90
2017,09,26,22,56,12.90
2017,09,26,22,57,12.90
2017,09,26,22,58,12.90
2017,09,26,22,59,12.80
2017,09,26,23,00,12.80
2017,09,26,23,01,12.80
2017,09,26,23,02,12.80
2017,09,26,23,03,12.90
2017,09,26,23,04,12.80
2017,09,26,23,05,12.80
2017,09,26,23,06,12.80
2017,09,26,23,07,12.80
2017,09,26,23,08,12.80
2017,09,26,23,09,12.80
2017,09,26,23,10,12.80
2017,09,26,23,11,12.80
2017,09,26,23,12,12.80
2017,09,26,23,13,12.80
2017,09,26,23,14,12.80
2017,09,26,23,15,12.80
2017,09,26,23,16,12.80
2017,09,26,23,17,12.70
2017,09,26,23,18,12.70
2017,09,26,23,19,12.70
2017,09,26,23,20,12.70
2017,09,26,23,21,12.70
2017,09,26,23,22,12.70
2017,09,26,23,23,12.70
2017,09,26,23,24,12.70
2017,09,26,23,25,12.70
2017,09,26,23,26,12.70
2017,09,26,23,27,12.60
2017,09,26,23,28,12.60
2017,09,26,23,29,12.60
2017,09,26,23,30,12.60
2017,09,26,23,31,12.60
2017,09,26,23,32,12.60
2017,09,26,23,33,12.60
2017,09,26,23,34,12.60
2017,09,26,23,35,12.60
2017,09,26,23,36,12.60
2017,09,26,23,37,12.60
2017,09,26,23,38,12.60
2017,09,26,23,39,12.60
2017,09,26,23,40,12.60
2017,09,26,23,41,12.60
2017,09,26,23,42,12.60
2017,09,26,23,43,12.60
2017,09,26,23,44,12.50
2017,09,26,23,45,12.50
2017,09,26,23,46,12.50
2017,09,26,23,47,12.40
2017,09,26,23,48,12.40
2017,09,26,23,49,12.40
2017,09,26,23,50,12.40
2017,09,26,23,51,12.30
2017,09,26,23,52,12.30
2017,09,26,23,53,12.30
2017,09,26,23,54,12.20
2017,09,26,23,55,12.20
2017,09,26,23,56,12.20
2017,09,26,23,57,12.20
2017,09,26,23,58,12.20
2017,09,26,23,59,12.20
